sat.trackr.live / text

‹ back to catalog

ONEWEB-0090

NORAD 45427 · 2020-020D

PAYLOAD ACTIVE UNKNOWN

§ Identity

Operator
Country
UK
Launch date
2020-03-21
Launch site
TYMSC
Launch vehicle
Mass (kg)
RCS (m²)

Purposes: comms

External: N2YO · Heavens-Above · Gunter

§ Orbital elements

Epoch: 2026-09-03T17:20:11.043456Z

Period
109.81 min
Inclination
87.8964°
Eccentricity
0.0001758
Mean motion
13.11414855 rev/d
Perigee alt
1,216.4 km
Apogee alt
1,219.0 km
Semi-major
7,595.8 km
B*
4.2740e-4
RAAN
5.4582°
Arg perigee
97.2916°
Mean anomaly
262.8412°
Rev number
31,296

§ Raw data

ONEWEB-00901 45427U 20020D   26246.72235004  .00000164  00000+0  42740-3 0  99992 45427  87.8964   5.4582 0001758  97.2916 262.8412 13.11414855312964

JSON: /api/v1/satellites/45427 · /tle

For live sub-satellite position, see the globe view (requires WebGL).

§ Visibility from observer

Set your observer location to see the next 7 days of passes ≥ 10°. The values pass through the URL so the page stays shareable.

No JS? Fill the form by hand. The geolocation button needs JavaScript.